When you browse on this site, cookies collect data to enhance your experience and personalize the content and advertising you see.
Visit our Privacy Policy to learn more. By continuing to use the site, you agree to this use of cookies and data.
  • In United Kingdom
  • List of Countries
  • For 7 days
  • Water Temperature
  • Weather Map
  • Weather Widgets
  • user-avatar
    Login

    Hourly Weather Brzozow

    Today, 25 May, Monday

    Time Temperature Precipitation Wind Pressure Humidity
    00:00 +7°C° 0 mm 2 mps 741 mmHg 93%
    01:00 +7°C° 0 mm 2 mps 741 mmHg 95%
    02:00 +7°C° 0.1 mm 2 mps 741 mmHg 95%
    03:00 +8°C° 0.1 mm 2 mps 741 mmHg 95%
    04:00 +8°C° 0.1 mm 2 mps 741 mmHg 95%
    05:00 +8°C° 0.1 mm 2 mps 742 mmHg 93%
    06:00 +9°C° 0.1 mm 2 mps 742 mmHg 92%
    07:00 +10°C° 0.1 mm 3 mps 742 mmHg 90%
    08:00 +10°C° 0.3 mm 3 mps 742 mmHg 90%
    09:00 +10°C° 0.3 mm 4 mps 742 mmHg 89%
    10:00 +11°C° 0.3 mm 4 mps 742 mmHg 89%
    11:00 +12°C° 0.4 mm 4 mps 741 mmHg 86%
    12:00 +12°C° 0.4 mm 4 mps 741 mmHg 83%
    13:00 +13°C° 0.4 mm 4 mps 741 mmHg 80%
    14:00 +13°C° 0.4 mm 4 mps 741 mmHg 80%
    15:00 +13°C° 0.4 mm 4 mps 740 mmHg 79%
    16:00 +13°C° 0.4 mm 3 mps 740 mmHg 79%
    17:00 +12°C° 0.2 mm 3 mps 740 mmHg 83%
    18:00 +12°C° 0.2 mm 2 mps 741 mmHg 88%
    19:00 +11°C° 0.2 mm 1 mps 741 mmHg 92%
    20:00 +10°C° 0.1 mm 1 mps 741 mmHg 93%
    21:00 +9°C° 0.1 mm 1 mps 741 mmHg 94%
    22:00 +8°C° 0.1 mm 1 mps 742 mmHg 95%
    23:00 +8°C° 0 mm 1 mps 742 mmHg 96%

    Tomorrow, 26 May, Tuesday

    Time Temperature Precipitation Wind Pressure Humidity
    00:00 +8°C° 0 mm 1 mps 742 mmHg 96%
    01:00 +7°C° 0 mm 1 mps 742 mmHg 97%
    02:00 +7°C° 0 mm 1 mps 742 mmHg 97%
    03:00 +6°C° 0 mm 2 mps 742 mmHg 98%
    04:00 +6°C° 0 mm 2 mps 742 mmHg 98%
    05:00 +7°C° 0 mm 2 mps 742 mmHg 97%
    06:00 +8°C° 0 mm 2 mps 743 mmHg 96%
    07:00 +9°C° 0 mm 3 mps 743 mmHg 95%
    08:00 +11°C° 0.1 mm 3 mps 743 mmHg 91%
    09:00 +12°C° 0.1 mm 3 mps 743 mmHg 88%
    10:00 +13°C° 0.1 mm 3 mps 743 mmHg 84%
    11:00 +14°C° 0.8 mm 3 mps 743 mmHg 82%
    12:00 +14°C° 0.8 mm 4 mps 743 mmHg 80%
    13:00 +15°C° 0.8 mm 5 mps 742 mmHg 78%
    14:00 +15°C° 0.8 mm 4 mps 742 mmHg 80%
    15:00 +15°C° 0.8 mm 4 mps 742 mmHg 82%
    16:00 +15°C° 0.8 mm 4 mps 742 mmHg 84%
    17:00 +14°C° 0.5 mm 4 mps 742 mmHg 87%
    18:00 +13°C° 0.5 mm 4 mps 742 mmHg 89%
    19:00 +12°C° 0.5 mm 3 mps 742 mmHg 92%
    20:00 +11°C° 0.1 mm 3 mps 743 mmHg 93%
    21:00 +10°C° 0.1 mm 2 mps 743 mmHg 95%
    22:00 +9°C° 0.1 mm 2 mps 743 mmHg 97%
    23:00 +9°C° 0 mm 2 mps 743 mmHg 97%

    Day after tomorrow, 27 May, Wednesday

    Time Temperature Precipitation Wind Pressure Humidity
    00:00 +9°C° 0 mm 2 mps 743 mmHg 98%
    01:00 +8°C° 0 mm 2 mps 743 mmHg 98%
    02:00 +8°C° 0 mm 2 mps 743 mmHg 98%
    03:00 +8°C° 0 mm 2 mps 743 mmHg 98%
    04:00 +8°C° 0 mm 2 mps 743 mmHg 98%
    05:00 +9°C° 0 mm 2 mps 743 mmHg 97%
    06:00 +10°C° 0 mm 3 mps 744 mmHg 96%
    07:00 +11°C° 0 mm 3 mps 744 mmHg 95%
    08:00 +12°C° 0.1 mm 3 mps 744 mmHg 92%
    09:00 +13°C° 0.1 mm 3 mps 743 mmHg 89%
    10:00 +14°C° 0.1 mm 3 mps 743 mmHg 86%
    11:00 +16°C° 0.8 mm 3 mps 743 mmHg 84%
    12:00 +15°C° 0.8 mm 4 mps 743 mmHg 81%
    13:00 +17°C° 0.8 mm 4 mps 743 mmHg 79%
    14:00 +17°C° 0.7 mm 4 mps 742 mmHg 80%
    15:00 +17°C° 0.7 mm 4 mps 742 mmHg 80%
    16:00 +17°C° 0.7 mm 4 mps 742 mmHg 81%
    17:00 +16°C° 0.3 mm 3 mps 742 mmHg 83%
    18:00 +14°C° 0.3 mm 3 mps 742 mmHg 85%
    19:00 +13°C° 0.3 mm 2 mps 742 mmHg 88%
    20:00 +12°C° 0.1 mm 2 mps 742 mmHg 89%
    21:00 +11°C° 0.1 mm 1 mps 742 mmHg 91%
    22:00 +10°C° 0.1 mm 1 mps 742 mmHg 92%
    23:00 +10°C° 0 mm 1 mps 742 mmHg 93%

    28 May, Thursday

    Time Temperature Precipitation Wind Pressure Humidity
    00:00 +9°C° 0 mm 1 mps 741 mmHg 93%
    01:00 +9°C° 0 mm 1 mps 741 mmHg 94%
    02:00 +9°C° 0 mm 1 mps 741 mmHg 95%
    03:00 +9°C° 0 mm 1 mps 741 mmHg 95%
    04:00 +9°C° 0 mm 1 mps 740 mmHg 96%
    05:00 +10°C° 0 mm 1 mps 740 mmHg 94%
    06:00 +10°C° 0 mm 2 mps 740 mmHg 93%
    07:00 +13°C° 0 mm 2 mps 740 mmHg 91%
    08:00 +13°C° 0.6 mm 3 mps 740 mmHg 87%
    09:00 +14°C° 0.6 mm 3 mps 740 mmHg 83%
    10:00 +15°C° 0.6 mm 4 mps 740 mmHg 79%
    11:00 +14°C° 0.9 mm 4 mps 739 mmHg 81%
    12:00 +14°C° 0.9 mm 4 mps 739 mmHg 83%
    13:00 +14°C° 0.9 mm 5 mps 739 mmHg 85%
    14:00 +14°C° 0.5 mm 5 mps 738 mmHg 82%
    15:00 +14°C° 0.5 mm 5 mps 738 mmHg 78%
    16:00 +14°C° 0.5 mm 5 mps 738 mmHg 74%
    17:00 +13°C° 0 mm 4 mps 738 mmHg 77%
    18:00 +12°C° 0 mm 3 mps 738 mmHg 80%
    19:00 +11°C° 0 mm 3 mps 738 mmHg 83%
    20:00 +10°C° 0 mm 2 mps 738 mmHg 86%
    21:00 +8°C° 0 mm 2 mps 738 mmHg 89%
    22:00 +7°C° 0 mm 2 mps 738 mmHg 93%
    23:00 +7°C° 0 mm 2 mps 738 mmHg 94%

    29 May, Friday

    Time Temperature Precipitation Wind Pressure Humidity
    00:00 +7°C° 0 mm 2 mps 738 mmHg 95%
    01:00 +7°C° 0 mm 2 mps 738 mmHg 96%
    02:00 +7°C° 0 mm 2 mps 738 mmHg 95%
    03:00 +8°C° 0 mm 3 mps 738 mmHg 94%
    04:00 +8°C° 0 mm 3 mps 738 mmHg 94%
    05:00 +8°C° 0 mm 3 mps 738 mmHg 91%
    06:00 +7°C° 0 mm 4 mps 738 mmHg 88%
    07:00 +7°C° 0 mm 4 mps 738 mmHg 84%
    08:00 +8°C° 0.1 mm 4 mps 737 mmHg 82%
    09:00 +8°C° 0.1 mm 4 mps 737 mmHg 80%
    10:00 +8°C° 0.1 mm 4 mps 737 mmHg 77%
    11:00 +10°C° 0 mm 4 mps 737 mmHg 73%
    12:00 +11°C° 0 mm 4 mps 737 mmHg 68%
    13:00 +12°C° 0 mm 4 mps 737 mmHg 64%
    14:00 +13°C° 0 mm 3 mps 736 mmHg 63%
    15:00 +13°C° 0 mm 3 mps 736 mmHg 63%
    16:00 +14°C° 0 mm 2 mps 736 mmHg 62%
    17:00 +13°C° 0 mm 2 mps 736 mmHg 68%
    18:00 +12°C° 0 mm 1 mps 736 mmHg 74%
    19:00 +11°C° 0 mm 1 mps 736 mmHg 80%
    20:00 +10°C° 0 mm 1 mps 736 mmHg 82%
    21:00 +9°C° 0 mm 1 mps 736 mmHg 84%
    22:00 +8°C° 0 mm 1 mps 737 mmHg 86%
    23:00 +7°C° 0 mm 1 mps 736 mmHg 87%

    30 May, Saturday

    Time Temperature Precipitation Wind Pressure Humidity
    00:00 +7°C° 0 mm 1 mps 736 mmHg 87%
    01:00 +6°C° 0 mm 1 mps 736 mmHg 88%
    02:00 +6°C° 0 mm 1 mps 736 mmHg 88%
    03:00 +6°C° 0 mm 1 mps 736 mmHg 88%
    04:00 +6°C° 0 mm 1 mps 736 mmHg 87%
    05:00 +8°C° 0 mm 1 mps 737 mmHg 81%
    06:00 +10°C° 0 mm 1 mps 737 mmHg 75%
    07:00 +12°C° 0 mm 1 mps 737 mmHg 69%
    08:00 +14°C° 0 mm 1 mps 737 mmHg 64%
    09:00 +15°C° 0 mm 1 mps 737 mmHg 60%
    10:00 +18°C° 0 mm 1 mps 737 mmHg 56%
    11:00 +18°C° 0 mm 1 mps 737 mmHg 55%
    12:00 +19°C° 0 mm 1 mps 736 mmHg 55%
    13:00 +19°C° 0 mm 1 mps 736 mmHg 54%
    14:00 +19°C° 0.2 mm 1 mps 736 mmHg 57%
    15:00 +19°C° 0.2 mm 1 mps 736 mmHg 59%
    16:00 +18°C° 0.2 mm 1 mps 736 mmHg 61%
    17:00 +16°C° 0.2 mm 1 mps 736 mmHg 69%
    18:00 +14°C° 0.2 mm 1 mps 735 mmHg 76%
    19:00 +13°C° 0.2 mm 1 mps 735 mmHg 84%
    20:00 +12°C° 0 mm 1 mps 735 mmHg 86%
    21:00 +11°C° 0 mm 1 mps 736 mmHg 87%
    22:00 +10°C° 0 mm 1 mps 736 mmHg 89%
    23:00 +10°C° 0 mm 1 mps 736 mmHg 90%
    Show more